Theta_e
318 322 325 330 334 336 339 340 336 338 335 326 324 327 328 328 333 328 325 327 328 328 326 328 328 324 322 321 320 320 320 319 316 314 313 313 312 316 317 316 316 316 314 316 317 319 320 315 309
322 325 332 336 338 341 339 337 338 335 332 329 323 322 322 326 323 324 326 327 325 327 326 328 326 324 322 320 320 320 320 317 315 314 313 313 314 322 324 323 319 316 313 314 315 320 322 322 317
321 328 333 337 341 341 338 336 335 333 330 329 323 322 323 325 324 324 325 327 325 326 325 326 324 322 321 320 321 320 318 317 316 316 314 315 322 326 326 327 324 320 320 318 322 327 324 325 324
324 329 332 336 338 338 336 335 333 332 331 326 323 326 324 325 324 324 325 326 324 323 322 323 321 320 321 322 322 321 319 318 318 318 315 317 329 328 326 326 328 321 320 327 327 327 327 327 327
326 333 332 338 337 335 333 333 331 332 329 328 323 327 326 326 325 325 325 325 324 321 320 320 320 321 322 323 323 321 320 320 320 319 316 320 326 323 322 322 323 323 324 324 326 328 324 325 327
330 330 334 333 333 332 331 330 330 330 328 326 324 325 326 326 325 324 325 324 323 320 320 319 320 322 323 324 324 322 320 321 321 321 319 323 323 323 322 321 323 325 327 327 326 321 324 324 324
330 332 329 331 330 330 330 329 329 329 328 328 325 326 326 326 325 325 324 324 322 320 319 319 320 322 324 325 324 321 321 321 321 321 322 323 323 322 322 322 321 320 323 324 325 324 324 324 325
329 329 328 329 328 328 330 328 326 329 329 329 324 327 329 326 326 326 324 324 322 320 320 320 320 322 323 324 323 321 322 322 322 319 321 324 324 324 324 323 322 322 320 320 320 323 325 325 323
328 329 327 326 327 327 328 329 326 327 328 327 327 328 328 327 327 326 325 324 323 320 320 321 321 322 323 324 322 321 322 322 321 317 319 323 325 325 325 324 323 321 319 317 316 318 323 325 324
329 329 327 326 326 327 327 328 328 328 328 329 328 327 328 328 328 326 325 325 324 323 321 321 321 322 323 324 322 322 322 322 318 317 320 322 325 325 325 324 322 321 317 316 317 321 324 323 327
328 330 328 327 326 326 327 327 328 328 329 328 329 329 329 328 327 326 326 325 325 325 322 322 321 322 323 323 322 322 322 322 317 320 324 323 324 325 324 325 323 320 319 321 323 324 322 325 326
328 328 328 328 327 326 327 327 328 328 328 328 328 328 329 328 327 327 326 326 325 325 323 322 322 322 323 323 322 322 322 319 318 324 325 325 324 325 325 325 323 322 322 321 321 320 321 320 323
328 327 328 328 328 328 327 328 328 327 327 327 328 328 327 328 328 329 326 325 325 325 323 323 322 322 323 322 322 322 322 317 322 326 325 326 326 326 325 325 323 323 323 322 321 320 320 321 321
325 325 325 326 327 327 327 326 325 324 324 324 324 325 325 325 328 327 326 326 325 325 324 323 322 322 323 322 322 322 320 318 325 326 326 326 327 327 326 325 324 324 325 325 322 322 321 322 322
320 322 323 322 323 323 321 321 321 320 321 322 323 323 324 324 326 326 326 326 325 325 324 323 323 322 322 322 322 323 317 322 326 327 327 326 326 326 326 326 326 324 325 326 323 322 322 321 321
318 319 320 320 319 319 319 320 321 320 321 322 322 324 324 324 325 326 326 326 325 325 324 323 323 322 322 322 323 321 318 324 326 326 327 326 326 325 325 326 326 325 325 325 323 323 322 322 322
319 321 320 320 318 319 320 321 321 320 320 321 322 322 323 323 324 325 325 325 326 324 323 323 322 322 322 322 323 317 322 325 324 326 327 327 327 326 326 326 327 325 325 324 323 323 322 322 321
319 318 319 319 319 318 319 320 320 320 321 321 322 323 324 324 323 324 325 325 324 323 323 323 322 322 322 324 319 319 325 324 324 325 327 327 326 325 325 325 325 325 324 323 322 323 322 321 322
321 320 321 320 318 318 321 322 322 321 321 322 322 323 323 323 323 325 325 324 323 322 323 322 322 322 324 323 318 324 325 323 323 326 326 327 326 325 326 325 324 325 323 322 323 321 322 322 323
316 317 318 318 318 319 321 321 322 322 321 322 322 322 323 325 324 325 325 323 322 321 322 322 323 324 323 319 323 324 324 323 326 327 327 326 325 324 325 325 323 322 322 323 322 321 322 323 322
316 317 317 318 321 321 321 322 322 322 322 321 322 324 324 325 324 324 324 323 321 321 322 323 324 324 320 322 325 326 324 325 326 326 325 325 325 322 322 322 323 324 324 323 321 321 322 324 324
318 317 317 318 319 322 321 324 323 321 321 324 325 326 325 323 323 324 324 323 321 321 323 324 324 321 320 325 326 324 325 325 325 324 326 324 324 323 324 323 324 324 323 322 320 322 325 325 324
317 318 318 318 320 321 321 321 322 323 321 322 324 326 325 323 323 323 324 323 321 323 324 324 322 320 322 326 325 324 324 325 325 326 326 327 326 324 324 323 323 323 322 321 321 323 324 324 323
317 319 320 320 321 322 321 320 323 321 321 323 325 326 323 324 324 324 323 322 323 324 324 323 321 320 323 324 324 324 324 324 325 324 327 326 326 325 323 323 323 323 322 321 322 324 324 323 323
318 319 321 321 322 323 321 321 321 322 323 325 325 326 324 324 324 324 323 325 324 324 324 323 320 319 323 324 324 323 324 324 325 325 326 326 326 325 324 324 323 324 324 321 322 324 324 322 323
318 320 321 324 324 321 321 320 320 323 322 322 324 325 324 325 325 324 325 325 324 324 324 322 319 321 324 325 323 324 326 326 325 325 326 326 326 326 325 324 323 324 323 321 323 323 324 323 325
317 319 318 319 322 320 322 323 324 325 326 326 324 324 326 327 325 325 325 324 325 325 324 322 319 323 323 326 324 326 327 325 324 325 326 326 326 326 325 324 323 323 322 320 321 322 323 323 324
317 318 317 318 319 320 323 325 323 327 327 328 328 327 326 326 326 325 325 324 325 325 324 320 323 325 325 326 325 327 326 325 325 324 325 326 326 326 324 324 323 324 322 322 322 323 323 324 324
315 317 317 318 319 318 318 321 328 328 329 329 329 328 326 326 326 325 325 325 325 325 323 320 324 325 326 326 325 327 325 326 325 325 325 326 326 326 326 324 323 325 325 324 324 324 323 325 325
315 317 318 317 319 318 320 320 323 327 326 328 329 327 326 327 326 326 326 325 325 325 323 320 324 325 326 326 325 327 325 327 326 326 325 325 325 326 326 325 324 324 324 324 325 325 325 325 324
Wind_Speed
12 13 10 5 3 2 3 3 3 5 2 3 6 6 9 3 4 6 3 9 9 13 13 17 17 16 14 9 8 8 8 9 10 10 10 11 12 11 10 11 11 10 10 11 11 10 10 11 11
14 12 7 2 3 4 3 4 7 2 10 10 6 6 4 6 13 7 5 13 10 15 14 17 17 15 12 10 10 10 8 8 9 10 11 12 12 12 12 13 11 12 12 12 12 11 10 10 10
12 9 3 2 3 6 3 8 3 6 11 4 3 6 4 4 9 6 10 15 11 15 13 16 16 16 14 12 11 9 7 7 8 10 11 12 12 14 14 14 15 15 14 13 12 11 11 11 11
9 4 2 4 11 7 5 4 3 11 5 3 4 7 6 12 6 7 9 13 11 12 13 15 15 15 15 15 14 12 9 8 9 11 11 11 12 15 17 17 18 17 17 15 13 13 13 14 13
9 3 4 4 8 7 8 15 8 6 4 6 4 4 6 13 13 11 10 13 12 11 12 16 16 17 17 17 17 14 11 10 10 12 12 10 13 17 18 19 20 20 18 18 17 17 16 17 17
4 2 4 8 11 9 8 12 5 7 3 3 5 5 6 12 14 15 12 13 13 11 10 16 17 17 18 19 18 15 14 12 12 14 13 11 14 15 15 16 19 20 19 18 19 18 18 18 19
5 3 5 7 9 8 6 4 5 5 3 3 6 3 6 14 14 15 13 15 15 16 13 15 17 18 19 19 19 17 15 14 14 16 14 13 13 13 14 15 17 19 22 23 22 21 21 22 21
3 3 4 6 6 7 5 3 7 2 2 10 0 3 7 19 20 19 18 20 20 20 19 18 17 20 22 22 20 18 15 14 17 18 18 16 15 15 15 16 16 18 21 22 22 22 22 22 22
7 5 11 8 7 7 4 5 2 4 9 8 11 12 14 18 25 21 21 26 26 26 25 23 22 24 24 23 20 17 15 17 19 20 20 19 19 18 18 16 17 16 18 19 19 21 23 23 24
11 9 13 10 11 8 3 6 8 7 14 25 14 13 15 22 25 20 23 32 32 31 30 27 25 26 27 25 21 19 17 18 20 20 20 19 20 19 18 17 15 15 15 16 15 15 16 16 15
10 18 23 21 14 9 14 15 12 16 18 27 18 25 28 28 29 26 26 33 39 33 33 30 27 27 28 27 22 19 17 18 19 19 17 17 20 21 21 19 17 14 12 13 15 16 16 16 14
14 19 31 31 19 14 16 14 16 20 34 35 27 25 30 30 33 34 31 33 36 40 35 32 28 29 29 26 23 19 17 17 18 16 14 16 18 21 21 19 16 16 13 14 14 14 16 17 21
15 21 25 25 27 24 26 26 23 31 35 37 30 29 30 34 35 35 33 31 36 43 39 34 30 30 28 26 23 19 16 18 17 14 14 15 17 19 20 19 18 17 16 14 14 15 14 15 18
15 26 29 27 24 30 24 29 16 27 32 38 33 33 33 31 33 34 32 31 35 42 45 33 33 29 28 25 22 17 18 17 14 13 14 16 17 18 19 20 19 19 17 16 14 15 15 14 15
14 14 15 16 22 18 21 18 18 31 32 27 29 34 33 36 32 31 30 30 31 42 44 35 31 29 27 24 19 19 18 16 13 13 14 16 16 18 19 20 20 19 18 18 16 15 15 14 14
9 6 14 12 17 13 11 21 18 29 21 25 28 28 30 30 33 35 33 34 35 38 42 32 33 29 26 23 19 18 17 14 13 13 14 15 16 16 17 18 18 18 16 16 15 15 14 13 14
8 12 16 12 12 12 14 17 12 17 17 23 30 31 32 35 35 31 33 31 32 36 32 33 32 29 24 20 19 17 15 13 12 14 15 15 15 15 17 17 16 16 16 15 14 14 14 14 14
18 11 10 13 10 9 15 18 17 27 19 25 29 28 28 28 37 34 27 25 26 29 26 29 32 27 23 20 17 15 13 12 12 14 15 15 14 15 16 14 14 16 16 15 14 14 15 14 12
18 20 22 17 7 8 16 17 20 25 21 23 27 28 30 33 33 29 19 15 16 21 25 29 32 27 22 19 14 13 11 11 12 12 13 14 14 17 13 11 12 14 14 13 13 13 14 13 14
23 23 23 14 12 7 16 20 18 18 22 23 26 28 28 26 26 20 14 12 14 18 25 30 29 24 18 15 11 10 9 10 11 12 11 10 13 9 6 9 9 10 11 11 11 13 14 13 16
29 29 24 19 4 8 10 22 19 14 15 22 24 24 23 21 15 12 10 10 14 20 27 30 25 19 15 12 10 8 8 10 8 6 6 8 6 3 4 5 6 8 9 9 11 14 13 14 17
26 24 23 17 8 12 3 17 19 18 20 16 21 17 12 9 8 7 8 11 15 23 29 27 21 16 14 12 8 6 7 4 3 5 5 5 4 5 5 4 4 6 8 9 12 12 10 11 17
22 15 17 15 12 12 17 10 18 5 18 23 18 17 10 5 7 5 7 11 20 30 29 22 18 15 14 10 7 4 2 1 3 4 5 5 5 6 5 6 4 6 9 10 13 11 10 10 12
12 12 12 7 9 13 17 13 25 13 18 14 13 15 6 7 2 7 12 19 30 31 26 21 17 15 12 9 5 3 2 1 5 5 4 5 6 7 6 6 5 6 9 12 13 11 9 9 9
23 14 8 9 9 11 11 12 19 9 13 16 17 13 5 4 6 14 21 28 34 30 24 20 16 13 12 9 4 4 1 3 5 6 4 2 3 5 7 7 7 7 9 13 13 12 8 6 7
27 23 10 14 13 9 13 11 9 17 25 30 22 16 7 8 11 18 26 29 31 28 23 18 15 14 12 8 5 3 2 3 5 4 2 1 3 4 6 8 8 7 10 13 14 12 8 8 9
23 22 17 10 1 4 5 7 13 15 14 12 18 14 10 12 17 21 26 31 30 26 22 16 15 14 12 6 4 1 1 2 3 3 2 4 3 3 7 10 8 8 10 13 15 12 9 10 8
20 22 12 11 13 9 4 7 9 9 14 10 10 12 12 15 19 23 27 32 28 24 19 15 14 12 11 6 4 3 1 3 1 2 2 3 4 4 9 10 10 9 11 12 13 13 12 10 8
11 22 8 10 7 7 4 6 8 16 15 16 13 13 17 21 23 25 27 31 27 24 20 17 16 13 11 7 5 4 2 3 2 4 5 4 5 5 8 11 11 10 11 11 12 13 13 11 10
22 17 22 11 9 10 5 6 1 9 3 3 6 12 17 20 22 25 28 31 28 25 22 18 17 14 11 8 6 4 3 4 5 6 5 5 6 7 8 11 12 11 11 11 11 11 11 11 11
Wind_Direction
154 146 149 145 209 274 249 229 257 250 243 195 153 185 208 207 188 296 218 187 170 180 188 196 197 205 210 226 225 235 257 285 297 298 294 287 281 275 266 268 262 269 267 258 266 264 266 265 260
159 150 149 153 231 227 219 218 218 293 316 286 231 212 220 250 230 254 222 192 177 186 186 189 192 201 211 220 223 233 261 294 298 298 295 286 277 267 273 275 256 284 279 265 259 257 259 264 263
161 163 189 216 203 220 219 207 227 313 318 254 256 221 195 226 227 223 199 196 184 181 188 188 192 196 200 208 217 226 254 280 298 306 302 286 267 253 260 265 260 287 281 273 264 259 255 269 267
163 163 97 237 235 242 236 203 297 326 0 336 258 264 245 255 260 240 224 199 189 180 189 192 195 201 206 213 218 224 245 264 297 305 305 281 261 260 263 264 256 269 268 263 262 255 256 266 267
164 158 228 248 251 257 248 267 257 282 273 306 210 255 259 270 254 246 234 209 199 188 196 198 204 209 214 221 222 227 244 262 283 299 305 281 264 266 265 264 259 262 259 258 258 252 261 256 260
160 135 222 243 246 252 262 254 227 242 243 298 187 254 261 291 279 256 232 210 205 206 205 202 207 213 218 226 227 233 248 264 280 295 296 277 260 262 262 263 264 260 260 260 258 257 255 249 251
196 183 253 261 265 269 245 197 192 181 353 51 303 250 284 316 310 269 239 215 215 212 213 210 213 215 221 229 233 238 251 268 283 292 287 274 262 261 266 269 264 263 258 257 254 254 254 254 251
217 216 237 240 255 269 197 194 161 42 355 327 121 253 304 313 317 305 242 216 216 221 218 220 222 219 222 226 231 239 254 272 283 289 283 274 263 258 260 266 261 266 262 257 254 249 251 253 252
189 235 244 239 215 246 208 222 90 331 296 286 261 259 292 310 306 294 246 224 221 226 224 221 224 224 224 227 232 239 254 270 284 287 279 272 261 262 262 266 271 267 264 260 256 250 248 250 250
200 223 238 236 238 259 279 307 317 290 298 288 273 281 304 306 307 289 255 241 231 232 230 225 227 228 225 225 230 239 252 267 285 283 274 264 260 261 261 268 269 269 265 259 252 251 249 250 250
212 230 236 261 253 266 281 280 293 292 290 282 294 302 307 304 303 298 274 257 250 240 233 228 229 229 227 227 230 240 251 273 281 275 267 259 258 256 253 261 262 259 263 259 250 249 251 248 252
214 231 244 252 268 277 275 294 274 275 269 280 291 287 295 300 299 302 291 270 255 241 238 232 230 231 229 229 233 239 256 275 277 274 263 253 252 254 251 259 255 252 259 262 257 256 255 253 247
215 228 241 250 267 266 275 270 268 284 281 282 283 285 285 289 294 297 294 278 259 246 241 233 231 231 230 230 233 241 262 273 274 274 268 260 258 258 255 256 249 249 253 263 261 258 264 255 246
219 230 243 252 262 270 267 268 278 268 277 281 285 280 281 282 290 293 287 283 265 252 246 233 229 231 230 231 232 247 263 271 275 273 272 265 263 266 261 256 250 248 251 259 262 259 264 252 243
242 238 241 240 247 255 271 271 256 269 272 278 277 282 281 282 281 281 288 287 282 258 247 236 229 230 229 227 231 249 264 268 272 270 271 267 268 269 265 261 257 252 253 249 256 257 261 250 239
208 206 229 229 232 246 218 269 277 272 277 282 284 282 282 283 286 286 284 282 277 262 247 236 228 226 223 219 233 251 261 267 270 271 271 267 273 270 268 262 255 252 247 239 249 252 252 242 235
214 231 218 236 229 245 214 274 257 273 287 287 284 284 282 283 286 285 292 281 275 266 246 233 224 220 214 215 234 251 258 266 269 271 271 269 277 275 274 263 247 239 237 240 248 254 247 236 229
219 228 236 233 228 224 239 254 274 283 286 281 284 287 284 280 286 296 291 277 268 259 241 229 217 205 200 217 235 247 255 262 274 275 272 275 275 283 278 262 239 232 237 242 249 255 243 224 217
253 234 238 234 228 245 250 268 278 286 289 283 284 282 278 282 289 295 278 267 259 241 223 214 200 192 201 219 230 239 251 268 280 273 274 277 276 288 278 248 228 228 235 239 246 243 209 199 187
229 234 238 248 259 247 279 280 280 284 284 285 285 278 272 281 289 282 273 257 237 226 212 193 185 191 203 214 220 230 252 273 281 278 281 278 288 287 253 215 216 224 230 233 233 193 186 191 184
224 229 237 244 256 245 289 281 276 280 285 293 285 271 279 279 279 262 257 236 217 203 188 177 179 189 201 203 211 231 270 289 286 278 279 286 285 268 200 196 219 233 227 219 200 188 193 189 184
230 227 240 240 234 255 240 284 278 290 287 285 284 278 278 295 295 263 234 214 195 180 173 172 178 188 193 199 209 246 282 282 277 287 277 278 273 231 221 209 228 219 198 193 187 187 186 187 183
233 222 216 228 247 274 257 276 274 226 282 280 281 281 299 290 293 247 202 182 168 168 167 170 177 183 191 194 208 257 232 267 330 311 282 270 258 233 222 202 217 193 187 182 182 182 175 173 187
207 197 164 185 235 245 251 241 279 257 252 265 264 267 284 331 252 168 160 160 160 163 166 172 176 182 185 189 202 197 197 336 334 321 294 286 250 226 210 201 203 183 182 179 172 176 183 191 203
195 197 185 211 209 241 230 217 249 251 245 252 265 274 275 246 175 161 158 159 163 166 170 172 177 181 180 178 187 185 165 338 327 331 312 276 210 205 206 195 194 187 179 177 173 169 168 186 187
191 190 215 217 225 234 203 230 260 231 238 238 246 268 224 198 173 165 161 164 167 170 172 173 175 177 172 172 180 172 6 334 339 347 13 127 159 175 187 180 178 176 172 176 173 176 164 158 162
201 212 214 238 120 220 194 240 267 248 245 232 228 227 211 183 168 165 166 167 172 174 173 174 169 170 169 169 163 123 43 347 356 24 105 124 113 131 165 167 167 165 165 170 178 173 171 166 162
185 178 189 213 212 218 211 237 237 223 230 217 215 204 182 169 166 168 171 172 177 176 172 169 168 167 169 166 142 125 56 7 13 73 102 126 104 117 159 157 154 158 160 163 166 165 169 171 165
181 189 195 199 223 209 230 231 217 228 213 221 217 195 174 170 172 171 173 175 179 177 173 172 170 167 169 168 146 130 66 27 83 101 89 114 110 126 155 158 152 154 159 162 161 160 166 163 157
198 195 194 197 183 218 232 231 49 241 257 225 170 163 165 168 168 171 173 177 182 180 177 177 174 169 171 176 162 142 83 43 122 122 92 95 119 132 140 164 166 161 159 155 160 165 167 169 165